Location: Unspecified
(49.2170°N, 0.0000°E)
Time: 14:13:22
(UTC+00:00)

Vanguard 2 - All Passes

Search period start: 23 January 2021 00:00
Search period end: 02 February 2021 00:00
Orbit: 553 x 2937 km, 32.9° (Epoch: 23 January)

Date Brightness Start Highest point End Pass type
(mag) Time Alt. Az. Time Alt. Az. Time Alt. Az.
23 Jan - 18:33:49 10° SSW 18:36:07 13° S 18:38:46 10° SE visible
23 Jan - 20:41:11 10° SSW 20:43:42 12° S 20:46:40 10° SSE visible
24 Jan - 18:51:31 10° SSW 18:53:36 13° S 18:55:57 10° SSE visible
25 Jan - 19:09:43 10° SSW 19:11:05 11° S 19:12:35 10° SSE visible
